KINEIS-5E

Last updated on Wed Oct 22 2025 00:02:42 GMT+0000 (Coordinated Universal Time)

1 62083U 24219C 25294.63426703 .00001580 00000+0 25780-3 0 9998 2 62083 97.9840 93.7111 0001582 76.2719 283.8664 14.72295398 48669
UTC large
Height (km)
Speed (km/s)
/
Latitude / Longitude
Inclination (degrees)
Orbital Period (minutes)
Azimuth
Elevation
Range (km)
Doppler Factor

Next 0 passes for location: London (51.5072 / 0.1276)

Sorry there are no passes over London.